Radiation Dose at Monitoring Post of Fukushima Daini Nuclear Power Station
Date,Time,MP-1(microSv/h),MP-2(microSv/h),MP-3(microSv/h),MP-4(microSv/h),MP-5(microSv/h),MP-6(microSv/h),MP-7(microSv/h),Wind Direction,Wind Velocity(m/s),Rain
2016/06/23,00:00,0.415,0.244,0.425,0.390,0.369,0.200,0.172,south,4.2,No
2016/06/23,00:10,0.419,0.246,0.430,0.392,0.373,0.200,0.172,-,CALM,No
2016/06/23,00:20,0.415,0.243,0.428,0.390,0.368,0.199,0.173,-,CALM,No
2016/06/23,00:30,0.417,0.245,0.427,0.391,0.374,0.199,0.171,-,CALM,No
2016/06/23,00:40,0.417,0.244,0.428,0.390,0.372,0.200,0.171,south,4.7,No
2016/06/23,00:50,0.415,0.244,0.426,0.392,0.371,0.199,0.171,south,4.7,No
2016/06/23,01:00,0.419,0.246,0.427,0.390,0.373,0.199,0.171,south,4.2,No
2016/06/23,01:10,0.415,0.245,0.429,0.389,0.370,0.199,0.172,south-southwest,2.9,No
2016/06/23,01:20,0.417,0.245,0.425,0.392,0.373,0.201,0.171,south-southwest,3.1,No
2016/06/23,01:30,0.416,0.245,0.429,0.388,0.372,0.199,0.173,south-southwest,2.8,No
2016/06/23,01:40,0.413,0.243,0.426,0.391,0.370,0.200,0.171,south-southwest,1.9,No
2016/06/23,01:50,0.419,0.244,0.427,0.391,0.374,0.200,0.172,south-southwest,2.3,No
2016/06/23,02:00,0.415,0.244,0.429,0.389,0.371,0.199,0.172,south,1.8,No
2016/06/23,02:10,0.415,0.244,0.425,0.392,0.373,0.200,0.171,south,1.7,Yes
2016/06/23,02:20,0.417,0.245,0.431,0.392,0.372,0.199,0.171,south,1.7,Yes
2016/06/23,02:30,0.414,0.245,0.428,0.391,0.370,0.198,0.171,south,1.6,Yes
2016/06/23,02:40,0.419,0.246,0.426,0.392,0.373,0.201,0.172,south,2.4,Yes
2016/06/23,02:50,0.415,0.243,0.430,0.388,0.370,0.198,0.172,south,2.0,No
2016/06/23,03:00,0.416,0.246,0.426,0.393,0.370,0.200,0.172,south,1.8,No
2016/06/23,03:10,0.417,0.245,0.431,0.390,0.373,0.200,0.173,south,1.8,No
2016/06/23,03:20,0.413,0.244,0.428,0.391,0.370,0.200,0.171,south-southeast,2.5,No
2016/06/23,03:30,0.418,0.246,0.427,0.392,0.373,0.200,0.171,south-southeast,3.0,No
2016/06/23,03:40,0.416,0.244,0.430,0.390,0.370,0.198,0.173,southeast,2.8,No
2016/06/23,03:50,0.417,0.245,0.426,0.394,0.370,0.199,0.171,southeast,2.5,No
2016/06/23,04:00,0.419,0.244,0.428,0.390,0.374,0.199,0.171,southeast,2.8,No
2016/06/23,04:10,0.414,0.243,0.429,0.390,0.371,0.199,0.170,southeast,1.3,No
2016/06/23,04:20,0.419,0.245,0.426,0.393,0.371,0.200,0.172,southeast,1.7,No
2016/06/23,04:30,0.415,0.245,0.428,0.388,0.373,0.199,0.171,southeast,1.5,No
2016/06/23,04:40,0.414,0.245,0.427,0.393,0.369,0.200,0.171,south-southeast,0.6,No
2016/06/23,04:50,0.418,0.245,0.428,0.391,0.373,0.199,0.172,east,0.9,Yes
2016/06/23,05:00,0.415,0.243,0.430,0.389,0.370,0.199,0.171,east-southeast,2.2,Yes
2016/06/23,05:10,0.418,0.246,0.426,0.393,0.371,0.201,0.173,southeast,2.8,Yes
2016/06/23,05:20,0.418,0.247,0.431,0.393,0.374,0.201,0.173,southeast,3.3,Yes
2016/06/23,05:30,0.417,0.248,0.431,0.393,0.370,0.204,0.175,southeast,3.7,Yes
2016/06/23,05:40,0.422,0.250,0.428,0.394,0.376,0.205,0.176,east,6.5,Yes
2016/06/23,05:50,0.417,0.248,0.432,0.391,0.373,0.205,0.175,-,CALM,Yes
2016/06/23,06:00,0.420,0.250,0.427,0.395,0.373,0.206,0.178,southwest,18.0,Yes
2016/06/23,06:10,0.419,0.249,0.428,0.392,0.376,0.205,0.176,southeast,0.9,Yes
2016/06/23,06:20,0.418,0.250,0.429,0.393,0.372,0.204,0.176,southeast,1.4,Yes
2016/06/23,06:30,0.421,0.250,0.426,0.394,0.377,0.205,0.177,south,1.6,Yes
2016/06/23,06:40,0.415,0.248,0.430,0.391,0.374,0.205,0.176,east-southeast,1.0,Yes
2016/06/23,06:50,0.417,0.250,0.424,0.392,0.372,0.207,0.178,south-southwest,5.9,Yes
2016/06/23,07:00,0.416,0.250,0.425,0.388,0.374,0.206,0.177,south-southeast,2.3,Yes
2016/06/23,07:10,0.415,0.249,0.424,0.389,0.371,0.207,0.178,east,1.6,Yes
2016/06/23,07:20,0.419,0.251,0.422,0.391,0.377,0.207,0.178,south-southeast,1.6,Yes
2016/06/23,07:30,0.414,0.250,0.426,0.387,0.375,0.206,0.176,southeast,2.5,Yes
2016/06/23,07:40,0.415,0.251,0.420,0.389,0.371,0.206,0.178,east-southeast,3.4,Yes
2016/06/23,07:50,0.417,0.249,0.424,0.385,0.375,0.205,0.176,east-southeast,4.5,Yes
2016/06/23,08:00,0.414,0.250,0.422,0.388,0.372,0.206,0.177,east-southeast,3.9,Yes
2016/06/23,08:10,0.416,0.250,0.420,0.388,0.376,0.205,0.177,east-southeast,3.6,Yes
2016/06/23,08:20,0.412,0.249,0.425,0.385,0.373,0.205,0.178,east-southeast,5.5,Yes
2016/06/23,08:30,0.415,0.251,0.421,0.387,0.373,0.205,0.178,east,5.6,Yes
2016/06/23,08:40,0.414,0.248,0.422,0.385,0.377,0.205,0.177,east,6.4,Yes
2016/06/23,08:50,0.414,0.251,0.422,0.385,0.371,0.206,0.178,east,6.4,Yes
2016/06/23,09:00,0.414,0.250,0.418,0.387,0.375,0.205,0.177,east,6.4,Yes
2016/06/23,09:10,0.412,0.250,0.422,0.384,0.374,0.205,0.178,east-southeast,6.7,Yes
2016/06/23,09:20,0.415,0.252,0.420,0.387,0.374,0.206,0.179,east-southeast,6.1,Yes
2016/06/23,09:30,0.412,0.250,0.421,0.385,0.376,0.207,0.179,east-southeast,6.6,Yes
2016/06/23,09:40,0.413,0.252,0.422,0.386,0.372,0.205,0.179,east,6.4,Yes
2016/06/23,09:50,0.412,0.249,0.419,0.384,0.375,0.205,0.176,east-northeast,6.2,Yes
2016/06/23,10:00,0.410,0.249,0.420,0.380,0.371,0.205,0.178,east,7.3,Yes
2016/06/23,10:10,0.411,0.251,0.417,0.385,0.375,0.206,0.177,east,6.4,Yes
2016/06/23,10:20,0.409,0.249,0.419,0.378,0.374,0.205,0.177,east,6.9,Yes
2016/06/23,10:30,0.413,0.251,0.419,0.381,0.373,0.206,0.178,east-northeast,6.8,Yes
2016/06/23,10:40,0.407,0.250,0.415,0.380,0.375,0.204,0.177,east,5.6,Yes
2016/06/23,10:50,0.409,0.251,0.419,0.377,0.371,0.205,0.179,east-northeast,7.6,Yes
2016/06/23,11:00,0.410,0.251,0.417,0.382,0.375,0.205,0.177,east,7.3,Yes
2016/06/23,11:10,0.407,0.250,0.419,0.378,0.373,0.202,0.178,northeast,5.8,Yes
2016/06/23,11:20,0.408,0.250,0.418,0.379,0.370,0.204,0.176,north-northeast,6.4,Yes
2016/06/23,11:30,0.402,0.248,0.415,0.377,0.373,0.202,0.176,north-northeast,5.3,Yes
2016/06/23,11:40,0.404,0.249,0.417,0.375,0.369,0.203,0.176,north,6.1,Yes
2016/06/23,11:50,0.399,0.247,0.412,0.375,0.373,0.201,0.175,north,7.1,Yes
2016/06/23,12:00,0.401,0.248,0.414,0.371,0.369,0.202,0.177,north,10.4,Yes
2016/06/23,12:10,0.399,0.248,0.412,0.373,0.371,0.202,0.175,north,9.2,Yes
2016/06/23,12:20,0.400,0.248,0.414,0.371,0.370,0.202,0.177,north,10.4,Yes
2016/06/23,12:30,0.401,0.248,0.414,0.373,0.372,0.205,0.177,north-northwest,10.1,Yes
2016/06/23,12:40,0.401,0.249,0.416,0.376,0.372,0.203,0.178,north-northwest,6.3,Yes
2016/06/23,12:50,0.402,0.249,0.416,0.376,0.373,0.204,0.177,north-northwest,2.8,Yes
2016/06/23,13:00,0.398,0.247,0.412,0.375,0.373,0.203,0.177,north,8.3,Yes
2016/06/23,13:10,0.401,0.249,0.413,0.373,0.371,0.203,0.177,north,8.0,Yes
2016/06/23,13:20,0.396,0.247,0.409,0.376,0.373,0.204,0.176,north,7.2,Yes
2016/06/23,13:30,0.399,0.246,0.412,0.373,0.370,0.201,0.176,north,7.4,Yes
2016/06/23,13:40,0.397,0.246,0.411,0.374,0.372,0.201,0.175,north,7.8,Yes
2016/06/23,13:50,0.399,0.245,0.413,0.375,0.370,0.199,0.174,north,6.2,Yes
2016/06/23,14:00,0.401,0.247,0.412,0.374,0.369,0.198,0.173,north,7.1,Yes
2016/06/23,14:10,0.398,0.243,0.412,0.378,0.372,0.199,0.173,north,7.9,Yes
2016/06/23,14:20,0.400,0.244,0.414,0.375,0.369,0.196,0.172,north,8.7,Yes
2016/06/23,14:30,0.397,0.242,0.410,0.377,0.372,0.196,0.169,north,8.2,Yes
2016/06/23,14:40,0.401,0.241,0.412,0.377,0.366,0.193,0.170,north,8.4,Yes
2016/06/23,14:50,0.396,0.242,0.411,0.375,0.369,0.195,0.168,north,9.0,Yes
2016/06/23,15:00,0.399,0.241,0.409,0.377,0.365,0.193,0.169,north,9.5,Yes
2016/06/23,15:10,0.396,0.242,0.410,0.373,0.367,0.193,0.167,north,9.5,Yes
2016/06/23,15:20,0.397,0.240,0.408,0.376,0.366,0.193,0.167,north,8.3,Yes
2016/06/23,15:30,0.397,0.241,0.412,0.374,0.367,0.192,0.168,north-northwest,8.4,Yes
2016/06/23,15:40,0.396,0.240,0.409,0.377,0.369,0.192,0.166,north,8.4,No
2016/06/23,15:50,0.397,0.239,0.411,0.376,0.365,0.192,0.167,north-northwest,8.2,No
2016/06/23,16:00,0.394,0.239,0.408,0.376,0.367,0.192,0.166,north,8.1,No
2016/06/23,16:10,0.399,0.238,0.410,0.376,0.365,0.192,0.166,north,9.8,No
2016/06/23,16:20,0.395,0.239,0.411,0.375,0.367,0.191,0.165,north,8.5,No
2016/06/23,16:30,0.398,0.237,0.410,0.376,0.363,0.192,0.165,north,8.0,No
2016/06/23,16:40,0.394,0.238,0.410,0.373,0.367,0.190,0.165,north,9.8,No
2016/06/23,16:50,0.397,0.237,0.409,0.376,0.365,0.192,0.164,north,9.8,No
2016/06/23,17:00,0.397,0.238,0.412,0.376,0.366,0.191,0.165,north,9.1,No
2016/06/23,17:10,0.397,0.238,0.408,0.374,0.365,0.190,0.164,north-northwest,8.9,No
2016/06/23,17:20,0.398,0.238,0.412,0.376,0.364,0.191,0.165,north,9.2,No
2016/06/23,17:30,0.397,0.237,0.411,0.373,0.366,0.190,0.164,north-northwest,7.9,No
2016/06/23,17:40,0.398,0.236,0.412,0.376,0.363,0.192,0.164,north,10.1,Yes
2016/06/23,17:50,0.396,0.237,0.414,0.373,0.366,0.191,0.164,north-northwest,8.9,Yes
2016/06/23,18:00,0.398,0.236,0.409,0.377,0.363,0.190,0.164,north-northwest,9.2,No
2016/06/23,18:10,0.395,0.238,0.412,0.374,0.366,0.191,0.165,north-northwest,8.7,No
2016/06/23,18:20,0.400,0.237,0.409,0.375,0.365,0.191,0.165,north-northwest,9.6,No
2016/06/23,18:30,0.397,0.238,0.414,0.376,0.365,0.192,0.165,north,9.5,No
2016/06/23,18:40,0.399,0.238,0.410,0.374,0.364,0.191,0.165,north-northwest,9.1,Yes
2016/06/23,18:50,0.398,0.238,0.412,0.378,0.367,0.192,0.165,north,8.9,No
2016/06/23,19:00,0.399,0.238,0.411,0.375,0.364,0.192,0.165,north,8.9,No
2016/06/23,19:10,0.398,0.237,0.411,0.376,0.367,0.192,0.165,north,7.6,No
2016/06/23,19:20,0.397,0.239,0.413,0.375,0.362,0.192,0.164,north-northwest,8.3,No
2016/06/23,19:30,0.399,0.237,0.413,0.377,0.365,0.191,0.165,north,7.8,Yes
2016/06/23,19:40,0.397,0.238,0.415,0.375,0.364,0.192,0.165,north-northwest,7.9,Yes
2016/06/23,19:50,0.400,0.238,0.411,0.377,0.364,0.192,0.165,north-northwest,7.5,Yes
2016/06/23,20:00,0.398,0.239,0.414,0.377,0.366,0.193,0.165,north,7.7,Yes
2016/06/23,20:10,0.401,0.239,0.411,0.377,0.365,0.193,0.167,north-northwest,6.9,Yes
2016/06/23,20:20,0.399,0.241,0.416,0.379,0.367,0.195,0.166,north,6.6,Yes
2016/06/23,20:30,0.403,0.239,0.411,0.377,0.367,0.195,0.167,north-northwest,6.9,Yes
2016/06/23,20:40,0.399,0.242,0.414,0.378,0.369,0.194,0.169,north,5.9,Yes
2016/06/23,20:50,0.402,0.241,0.414,0.375,0.366,0.197,0.168,north,4.9,Yes
2016/06/23,21:00,0.400,0.241,0.413,0.379,0.366,0.195,0.169,north,6.4,Yes
2016/06/23,21:10,0.400,0.241,0.413,0.377,0.365,0.197,0.168,north,6.6,Yes
2016/06/23,21:20,0.401,0.240,0.412,0.375,0.370,0.196,0.168,north,6.4,Yes
2016/06/23,21:30,0.400,0.242,0.414,0.378,0.366,0.195,0.169,north,7.0,Yes
2016/06/23,21:40,0.402,0.241,0.411,0.376,0.368,0.196,0.168,north,7.5,No
2016/06/23,21:50,0.399,0.240,0.415,0.376,0.366,0.194,0.167,north,7.5,No
2016/06/23,22:00,0.399,0.238,0.409,0.374,0.368,0.195,0.167,north,6.8,No
2016/06/23,22:10,0.396,0.239,0.416,0.376,0.365,0.194,0.166,north,6.8,Yes
2016/06/23,22:20,0.400,0.238,0.411,0.374,0.368,0.194,0.166,north,6.4,Yes
2016/06/23,22:30,0.397,0.240,0.413,0.377,0.365,0.196,0.167,north,6.7,Yes
2016/06/23,22:40,0.401,0.240,0.411,0.373,0.368,0.195,0.167,north,7.9,Yes
2016/06/23,22:50,0.398,0.239,0.413,0.377,0.365,0.197,0.168,north,8.6,No
2016/06/23,23:00,0.400,0.239,0.413,0.373,0.367,0.194,0.166,north,8.1,No
2016/06/23,23:10,0.398,0.239,0.411,0.375,0.364,0.195,0.166,north,9.0,No
2016/06/23,23:20,0.399,0.238,0.412,0.375,0.366,0.193,0.166,north,9.7,No
2016/06/23,23:30,0.397,0.238,0.411,0.375,0.365,0.193,0.165,north-northwest,8.7,No
2016/06/23,23:40,0.398,0.239,0.412,0.375,0.366,0.193,0.164,north-northwest,9.1,No
2016/06/23,23:50,0.398,0.238,0.411,0.374,0.364,0.192,0.165,north,9.8,Yes
